Content
SEND FEEDBACK

Daily
Averages
Monthly
Summary
Canada

QUEBEC CITY, QUEBEC


Home > North America > Canada > Quebec
Elevation: 72 meters     Latitude: 46 48N     Longitude: 071 23W

WEATHER
 
SELECT A DAY
Number of Records: 195,930;   Date Range: 6/30/96 - 10/24/14
 
SHARE

PRINT THIS DATA

[ ← Previous Day ]
WEATHER ALMANAC - 18 APRIL, 2013
[ Next Day → ]
[ °F ]   °C
Weather ElementAverageHighLow
Temperature2.7 °C5 °C (11:00 am)-1.1 °C (5:00 am)
Dewpoint-4.7 °C1.1 °C (5:00 pm) (7:00 pm)
Humidity59.8 %87 % (4:27 pm)28 % (11:00 am)
Barometer962.1 hPa1031.2 hPa (6:00 am) (7:00 pm)
Wind Speed15.6 km/h25.9 km/h (4:27 pm)
Wind Gust33.3 km/h (9:00 am)
Weather ElementAverage
Visibility28.3 km
Wind DirectionENE (60 °)

Weather ElementTotal
Precipitation---
Heating Degree Days16.4 (Base 18.3)
Averaged from 33 records on 18 April, 2013
WEATHER CONDITIONS BREAKOUT
WIND DIRECTION BREAKOUT
WEATHER BY HOUR - 18 APRIL, 2013
[ °F ]   °C
Local TimeTemperatureDewpointHumidityBarometerVisibilityWind DirectionWind SpeedGust SpeedPrecipitationEventsConditions
1:00 AM2 °C-11 °C38 %1029.5 hPa24.1 kmNNE (20°)9.3 km/hScattered Clouds
2:00 AM0 °C-9.4 °C35 %1029.5 hPaNorth (10°)3.7 km/h
2:00 AM1 °C-10 °C44 %1029.5 hPa24.1 kmNNE (20°)7.4 km/hPartly Cloudy
3:00 AM0 °C-10 °C48 %1030.5 hPa24.1 kmNorth (10°)5.6 km/hScattered Clouds
4:00 AM0 °C-9 °C51 %1030.5 hPa24.1 kmNE (40°)5.6 km/hMostly Cloudy
5:00 AM-1.1 °C-7.2 °C51 %1030.5 hPaNE (40°)3.7 km/h
5:00 AM0 °C-9 °C51 %1030.5 hPa24.1 kmNE (50°)11.1 km/hMostly Cloudy
6:00 AM0 °C-8 °C55 %1031.2 hPa48.3 kmNE (40°)5.6 km/hMostly Cloudy
7:00 AM1 °C-7 °C56 %1031.2 hPa48.3 kmENE (60°)13 km/hOvercast
8:00 AM2.2 °C-5.6 °C44 %1030.5 hPaEast (90°)16.7 km/h
8:00 AM2 °C-6 °C56 %1030.5 hPa48.3 kmENE (70°)20.4 km/h29.6 km/hMostly Cloudy
9:00 AM2 °C-6 °C56 %1029.5 hPa48.3 kmENE (70°)24.1 km/h33.3 km/hMostly Cloudy
10:00 AM3 °C-6 °C52 %1029.5 hPa48.3 kmENE (70°)20.4 km/h29.6 km/hOvercast
11:00 AM5 °C-7.2 °C28 %1027.8 hPaENE (70°)18.5 km/h
11:00 AM4 °C-6 °C49 %1028.4 hPa48.3 kmENE (60°)20.4 km/h33.3 km/hOvercast
12:00 PM5 °C-6 °C45 %1027.4 hPa48.3 kmENE (60°)20.4 km/h31.5 km/hOvercast
1:00 PM5 °C-5 °C49 %1025.7 hPa24.1 kmEast (90°)16.7 km/h29.6 km/hOvercast
2:00 PM5 °C-4.4 °C39 %1024 hPaEast (90°)16.7 km/h
2:00 PM5 °C-5 °C49 %1024.7 hPa9.7 kmENE (70°)16.7 km/h27.8 km/hLight Ice Pellets
2:24 PM4 °C-17.8 °C9.7 kmEast (80°)13 km/hRainLight Rain Showers
3:00 PM4 °C-2 °C65 %1023.4 hPa9.7 kmENE (60°)24.1 km/hRainLight Rain Showers
4:00 PM3 °C0 °C81 %1022.4 hPa19.3 kmNE (40°)22.2 km/hRainLight Rain Showers
4:27 PM2 °C0 °C87 %12.9 kmEast (80°)25.9 km/hRainLight Rain Showers
5:00 PM2.8 °C1.1 °C84 %1019 hPaEast (80°)13 km/h
5:00 PM3 °C0 °C81 %1019.3 hPa19.3 kmENE (60°)22.2 km/hOvercast
6:00 PM2 °C0 °C87 %1017.9 hPa24.1 kmENE (60°)24.1 km/h33.3 km/hOvercast
7:00 PM3 °C0 °C81 %1016.3 hPa24.1 kmENE (70°)22.2 km/hOvercast
8:00 PM3.9 °C1.1 °C76 %1014.6 hPaEast (80°)13 km/h
8:00 PM4 °C0 °C75 %1014.9 hPa24.1 kmENE (70°)16.7 km/h27.8 km/hOvercast
9:00 PM4 °C0 °C75 %1013.9 hPa24.1 kmENE (70°)16.7 km/hOvercast
10:00 PM4 °C0 °C75 %1012.5 hPa24.1 kmENE (70°)18.5 km/hOvercast
11:00 PM3.9 °C1.1 °C74 %1010.8 hPaENE (70°)9.3 km/h
11:00 PM4 °C0 °C75 %1011.2 hPa24.1 kmENE (60°)14.8 km/hOvercast
Hourly data recorded from CYQB, located 0 kilometers away from Quebec City, Quebec







STORIES FROM OUR PARTNERS